Weather History for Culiacan, Mexico

Change the Weather History Date:

Wednesday, May 8, 2013

  Actual Average Record
Temperature  
Mean Temperature 82 °F -  
Max Temperature 100 °F 93 °F 102 °F (2001)
Min Temperature 63 °F 67 °F 32 °F (2003)
Cooling Degree Days 16    
Growing Degree Days 32 (Base 50)    
Moisture  
Dew Point 60 °F    
Average Humidity 41    
Maximum Humidity 83    
Minimum Humidity 14    
Precipitation  
Precipitation 0.00 in - - ()
Sea Level Pressure  
Sea Level Pressure 29.95 in    
Wind  
Wind Speed 5 mph ()    
Max Wind Speed 21 mph    
Max Gust Speed -    
Visibility 12.3 miles    
Events      
Averages and records for this station are not official NWS values.
T = Trace of Precipitation, MM = Missing Value Source: Averaged Metar Reports

Daily Weather History Graph

Daily Weather History Graph

Search for Another Location

Airport:

Trip Planner

Search our weather history database for the weather conditions in past years. The results will help you decide how hot, cold, wet, or windy it might be!

Date:

Astronomy

May. 08, 2013 Rise Set
Actual Time 6:29 AM MDT 7:43 PM MDT
Civil Twilight 6:05 AM MDT 8:07 PM MDT
Nautical Twilight 5:36 AM MDT 8:36 PM MDT
Astronomical Twilight 5:06 AM MDT 9:06 PM MDT
Moon 5:31 AM MDT (5/8) 6:48 PM MDT (5/8)
Length of Visible Light 14h 02m
Length of Day
13h 13m
Waning Crescent, 2% of the Moon is Illuminated
May 8
Waning Crescent
May 9
New
May 17
First Quarter
May 24
Full
May 31
Last Quarter

Hourly Weather History & Observations

Time (MDT) Temp. Heat Index Dew Point Humidity Pressure Visibility Wind Dir Wind Speed Gust Speed Precip Events Conditions
1:44 AM 69.8 °F - 62.6 °F 78% 29.96 in 10.0 mi Calm Calm - N/A   Clear
5:41 AM 69.8 °F - 62.6 °F 78% 29.95 in 10.0 mi Calm Calm - N/A   Clear
6:45 AM 69.8 °F - 64.4 °F 83% 29.96 in 15.0 mi Calm Calm - N/A   Scattered Clouds
7:46 AM 75.2 °F - 60.8 °F 61% 29.97 in 15.0 mi NNE 5.8 mph - N/A   Partly Cloudy
8:45 AM 78.8 °F - 60.8 °F 54% 29.97 in 15.0 mi NNE 5.8 mph - N/A   Partly Cloudy
9:42 AM 86.0 °F 86.6 °F 62.6 °F 45% 29.98 in 10.0 mi NNE 6.9 mph - N/A   Scattered Clouds
10:49 AM 93.2 °F 93.3 °F 60.8 °F 34% 29.98 in 20.0 mi Calm Calm - N/A   Scattered Clouds
11:43 AM 96.8 °F 96.2 °F 59.0 °F 28% 29.96 in 10.0 mi WNW 11.5 mph - N/A   Scattered Clouds
11:45 AM 97 °F - 55 °F 16% 30.00 in 10 mi West 2.2 mph - -   Haze
12:43 PM 98.6 °F 96.4 °F 53.6 °F 22% 29.96 in 20.0 mi NNW 5.8 mph - N/A   Scattered Clouds
1:45 PM 102.2 °F 103.6 °F 60.8 °F 26% 29.94 in 10.0 mi WNW 13.8 mph - N/A   Scattered Clouds
2:40 PM 101 °F - 60 °F 17% 29.99 in 10 mi West 2.2 mph - -   Haze
2:43 PM 102.2 °F 103.6 °F 60.8 °F 26% 29.91 in 10.0 mi WNW 17.3 mph - N/A   Mostly Cloudy
3:41 PM 100.4 °F 101.3 °F 60.8 °F 27% 29.93 in 20.0 mi NW 17.3 mph - N/A   Overcast
4:40 PM 95.0 °F 96.0 °F 62.6 °F 34% 29.92 in 10.0 mi WNW 20.7 mph - N/A   Overcast
5:40 PM 92 °F - 49 °F 14% 29.96 in 10 mi WSW 2.2 mph - -   Haze
5:44 PM 93.2 °F 94.9 °F 64.4 °F 38% 29.92 in 20.0 mi West 17.3 mph - N/A   Overcast
6:40 PM 87.8 °F 89.4 °F 64.4 °F 46% 29.94 in 10.0 mi WNW 11.5 mph - N/A   Overcast
7:40 PM 86.0 °F 86.1 °F 60.8 °F 43% 29.94 in 10.0 mi WNW 13.8 mph - N/A   Overcast
8:40 PM 82.4 °F 83.9 °F 64.4 °F 54% 29.94 in 10.0 mi WNW 11.5 mph - N/A   Overcast
8:45 PM 81 °F - 55 °F 30% 29.99 in 6 mi Calm Calm - -  
11:40 PM 80.6 °F 81.8 °F 62.6 °F 54% 29.94 in 10.0 mi Calm Calm - N/A   Overcast